COSMOS 2361 1 25590U 98076A 10067.68286833 +.00000034 +00000-0 +20428-4 0 02876 2 25590 082.9296 279.6660 0033088 069.9312 290.5393 13.72715684561318 COSMOS 2378 1 26818U 01023A 10067.74906044 +.00000062 +00000-0 +49776-4 0 02751 2 26818 082.9273 306.0156 0034232 036.5274 323.8203 13.73742169438650 COSMOS 2389 1 27436U 02026A 10067.82553628 +.00000005 +00000-0 -98656-5 0 00126 2 27436 082.9441 246.8792 0045150 284.3374 075.2770 13.74739490390339 COSMOS 2398 1 27818U 03023A 10067.88857423 +.00000026 +00000-0 +12069-4 0 08622 2 27818 082.9488 193.9209 0029831 259.4318 100.3488 13.71962384338546 COSMOS 2407 1 28380U 04028A 10067.79144261 +.00000057 +00000-0 +43273-4 0 06816 2 28380 082.9631 155.0440 0038229 313.6233 046.1769 13.75850851282576 COSMOS 2414 1 28521U 05002A 10067.78190424 +.00000093 +00000-0 +65826-4 0 06073 2 28521 082.9471 217.1689 0040334 353.7820 006.2843 13.87355735259788 COSMOS 2429 1 32052U 07038A 10067.83215460 -.00000011 +00000-0 -26842-4 0 07946 2 32052 082.9761 265.0514 0037023 270.1524 089.5388 13.74700304124924